Location: Unspecified
(0.0000°N, 0.0000°E)
Time: 08:06:43
(UTC+00:00)

JUGNU - Visible Passes

Search period start: 26 September 2020 00:00
Search period end: 06 October 2020 00:00
Orbit: 836 x 864 km, 20.0° (Epoch: 25 September)

Date Brightness Start Highest point End Pass type
(mag) Time Alt. Az. Time Alt. Az. Time Alt. Az.
26 Sep ? 03:25:30 20° NE 03:25:30 20° NE 03:27:24 10° NE visible
26 Sep ? 05:07:51 10° NW 05:11:26 16° NNW 05:15:00 10° NNE visible
27 Sep ? 03:11:26 13° NE 03:11:26 13° NE 03:12:06 10° NE visible
27 Sep ? 04:53:18 11° NW 04:56:20 15° NNW 04:59:38 10° NNE visible
27 Sep ? 19:33:18 10° S 19:33:59 10° S 19:34:38 10° S visible
28 Sep ? 04:39:12 12° NW 04:41:15 14° NNW 04:44:14 10° NNE visible
28 Sep ? 19:17:47 10° S 19:18:55 10° S 19:20:02 10° SSE visible
29 Sep ? 04:25:06 13° NNW 04:26:10 13° N 04:28:51 10° NNE visible
29 Sep ? 19:02:21 10° S 19:03:51 11° S 19:05:22 10° SSE visible
30 Sep ? 04:10:58 12° N 04:11:06 12° N 04:13:25 10° NNE visible
30 Sep ? 18:46:55 10° SSW 18:48:47 11° S 18:50:40 10° SSE visible
30 Sep ? 20:34:14 10° SSW 20:34:23 10° SSW 20:34:23 10° SSW visible
01 Oct ? 03:56:50 11° N 03:56:50 11° N 03:57:59 10° N visible
01 Oct ? 18:31:30 10° SSW 18:33:43 12° S 18:35:57 10° SSE visible
01 Oct ? 20:18:53 10° SW 20:20:13 15° SSW 20:20:13 15° SSW visible
02 Oct ? 18:16:06 10° SSW 18:18:39 13° S 18:21:12 10° SE visible
02 Oct ? 20:03:32 10° SW 20:06:04 20° SSW 20:06:04 20° SSW visible
03 Oct ? 19:48:12 10° SW 19:51:57 25° S 19:51:57 25° S visible
04 Oct ? 05:00:08 10° N 05:01:03 10° N 05:01:58 10° NNE visible
04 Oct ? 19:32:52 10° SW 19:37:50 30° SSE 19:37:50 30° SSE visible
05 Oct ? 04:44:31 10° N 04:46:00 11° N 04:47:28 10° NNE visible
05 Oct ? 19:17:33 10° SW 19:22:56 34° SSE 19:23:44 32° SE visible
